Location: Caltech
(34.1382°N, 118.1253°W)
Time: 07:33:24
(UTC-07:00)

JAS-1B - Visible Passes

Search period start: 30 May 2016 00:00
Search period end: 09 June 2016 00:00
Orbit: 911 x 1744 km, 99.0° (Epoch: 29 May)

Date Brightness Start Highest point End Pass type
(mag) Time Alt. Az. Time Alt. Az. Time Alt. Az.
30 May 11.2 04:53:08 10° ENE 04:55:12 11° NE 04:57:13 10° NE visible
30 May 7.5 20:17:04 10° N 20:23:24 67° WNW 20:29:04 10° SSW visible
31 May 11.0 05:08:55 10° E 05:13:50 16° ENE 05:18:27 10° NNE visible
31 May 8.3 20:36:19 10° N 20:42:16 45° WNW 20:47:42 10° SW visible
01 Jun 9.0 20:55:43 10° N 21:01:05 31° WNW 21:06:02 10° SW visible
02 Jun 9.6 21:15:22 10° NNW 21:19:50 21° WNW 21:23:59 10° WSW visible
03 Jun 9.9 21:35:30 10° NNW 21:38:29 14° WNW 21:41:22 10° W visible
05 Jun 11.1 04:56:00 10° ENE 04:58:46 12° ENE 05:01:25 10° NE visible
06 Jun 10.9 05:12:18 10° E 05:17:26 17° ENE 05:22:12 10° NNE visible
06 Jun 8.6 20:39:58 10° N 20:45:27 38° WNW 20:50:37 10° SW visible
07 Jun 9.3 20:59:28 10° NNW 21:04:15 26° WNW 21:08:50 10° WSW visible
08 Jun 9.7 21:19:17 10° NNW 21:22:59 17° WNW 21:26:35 10° WSW visible
